Time,TemperatureF,DewpointF,PressureIn,WindDirection,WindDirectionDegrees,WindSpeedMPH,WindSpeedGustMPH,Humidity,HourlyPrecipIn,Conditions,Clouds,dailyrainin,SoftwareType,DateUTC
2013-08-17 00:01:00,63.7,61.0,28.02,SSW,202,0.0,0.0,91,0.00,,---,0.00,VWS V14.01,2013-08-17 04:01:00,
2013-08-17 00:02:00,63.7,61.0,28.02,SSW,202,0.0,0.0,91,0.00,,---,0.00,VWS V14.01,2013-08-17 04:02:00,
2013-08-17 00:07:00,63.7,61.0,28.02,West,270,0.0,0.0,91,0.00,,---,0.00,VWS V14.01,2013-08-17 04:07:00,
2013-08-17 00:12:00,63.7,61.0,28.02,West,270,0.0,0.0,91,0.00,,---,0.00,VWS V14.01,2013-08-17 04:12:00,
2013-08-17 00:17:00,63.9,61.2,28.02,West,270,0.0,0.0,91,0.00,,---,0.00,VWS V14.01,2013-08-17 04:17:00,
2013-08-17 00:22:00,63.7,61.0,28.02,West,270,0.0,0.0,91,0.00,,---,0.00,VWS V14.01,2013-08-17 04:22:00,
2013-08-17 00:27:00,63.7,61.0,28.02,West,270,0.0,0.0,91,0.00,,---,0.00,VWS V14.01,2013-08-17 04:27:00,
2013-08-17 00:32:00,63.7,61.0,28.02,South,180,0.0,0.0,91,0.00,,---,0.00,VWS V14.01,2013-08-17 04:32:00,
2013-08-17 00:37:00,63.9,61.2,28.02,South,180,0.0,0.0,91,0.00,,---,0.00,VWS V14.01,2013-08-17 04:37:00,
2013-08-17 00:42:00,63.7,60.7,28.02,South,180,0.0,0.0,90,0.00,,---,0.00,VWS V14.01,2013-08-17 04:42:00,
2013-08-17 00:47:00,63.7,61.0,28.02,South,180,0.0,0.0,91,0.00,,---,0.00,VWS V14.01,2013-08-17 04:47:00,
2013-08-17 00:52:00,63.7,61.0,28.02,South,180,0.0,0.0,91,0.00,,---,0.00,VWS V14.01,2013-08-17 04:52:00,
2013-08-17 00:57:00,63.7,60.7,28.02,South,180,0.0,0.0,90,0.00,,---,0.00,VWS V14.01,2013-08-17 04:57:00,
2013-08-17 01:02:00,63.7,60.7,28.02,South,180,0.0,0.0,90,0.00,,---,0.00,VWS V14.01,2013-08-17 05:02:00,
2013-08-17 01:08:00,63.5,60.8,28.02,South,180,0.0,0.0,91,0.00,,---,0.00,VWS V14.01,2013-08-17 05:08:00,
2013-08-17 01:13:00,63.5,60.8,28.02,South,180,0.0,0.0,91,0.00,,---,0.00,VWS V14.01,2013-08-17 05:13:00,
2013-08-17 01:18:00,63.5,60.8,28.02,South,180,0.0,0.0,91,0.00,,---,0.00,VWS V14.01,2013-08-17 05:18:00,
2013-08-17 01:23:00,63.5,60.8,28.02,South,180,0.0,0.0,91,0.00,,---,0.00,VWS V14.01,2013-08-17 05:23:00,
2013-08-17 01:28:00,63.5,60.8,28.02,South,180,0.0,0.0,91,0.00,,---,0.00,VWS V14.01,2013-08-17 05:28:00,
2013-08-17 01:33:00,63.5,60.8,28.02,South,180,0.0,0.0,91,0.00,,---,0.00,VWS V14.01,2013-08-17 05:33:00,
2013-08-17 01:38:00,63.3,60.7,28.02,South,180,0.0,0.0,91,0.00,,---,0.00,VWS V14.01,2013-08-17 05:38:00,
2013-08-17 01:43:00,63.3,60.7,28.02,South,180,0.0,0.0,91,0.00,,---,0.00,VWS V14.01,2013-08-17 05:43:00,
2013-08-17 01:48:00,63.3,60.7,28.02,South,180,0.0,0.0,91,0.00,,---,0.00,VWS V14.01,2013-08-17 05:48:00,
2013-08-17 01:53:00,63.1,60.5,28.02,South,180,0.0,0.0,91,0.00,,---,0.00,VWS V14.01,2013-08-17 05:53:00,
2013-08-17 01:58:00,63.1,60.5,28.02,South,180,0.0,0.0,91,0.00,,---,0.00,VWS V14.01,2013-08-17 05:58:00,
2013-08-17 02:03:00,63.3,60.7,28.02,South,180,0.0,0.0,91,0.00,,---,0.00,VWS V14.01,2013-08-17 06:03:00,
2013-08-17 02:08:00,63.1,60.8,28.02,South,180,0.0,0.0,92,0.00,,---,0.00,VWS V14.01,2013-08-17 06:08:00,
2013-08-17 02:13:00,63.1,60.8,28.02,West,270,0.0,0.0,92,0.00,,---,0.00,VWS V14.01,2013-08-17 06:13:00,
2013-08-17 02:18:00,63.1,60.5,28.02,SW,225,0.0,0.0,91,0.00,,---,0.00,VWS V14.01,2013-08-17 06:18:00,
2013-08-17 02:23:00,63.3,61.0,28.02,SW,225,0.0,0.0,92,0.00,,---,0.00,VWS V14.01,2013-08-17 06:23:00,
2013-08-17 02:28:00,63.3,61.0,28.02,SW,225,0.0,0.0,92,0.00,,---,0.00,VWS V14.01,2013-08-17 06:28:00,
2013-08-17 02:33:00,63.3,61.0,28.02,SW,225,0.0,0.0,92,0.00,,---,0.00,VWS V14.01,2013-08-17 06:33:00,
2013-08-17 02:38:00,63.3,61.0,28.02,SW,225,0.0,0.0,92,0.00,,---,0.00,VWS V14.01,2013-08-17 06:38:00,
2013-08-17 02:43:00,63.3,61.0,28.02,SW,225,0.0,0.0,92,0.00,,---,0.00,VWS V14.01,2013-08-17 06:43:00,
2013-08-17 02:48:00,63.3,61.0,28.02,SSW,202,0.0,0.0,92,0.00,,---,0.00,VWS V14.01,2013-08-17 06:48:00,
2013-08-17 02:54:00,63.3,61.0,28.02,WSW,248,0.0,0.0,92,0.00,,---,0.00,VWS V14.01,2013-08-17 06:54:00,
2013-08-17 02:59:00,63.3,61.0,28.02,WSW,248,0.0,0.0,92,0.00,,---,0.00,VWS V14.01,2013-08-17 06:59:00,
2013-08-17 03:04:00,63.3,61.0,28.02,WSW,248,0.0,0.0,92,0.00,,---,0.00,VWS V14.01,2013-08-17 07:04:00,
2013-08-17 03:09:00,63.3,61.0,27.99,WSW,248,0.0,0.0,92,0.00,,---,0.00,VWS V14.01,2013-08-17 07:09:00,
2013-08-17 03:14:00,63.1,60.8,27.99,SSE,158,0.0,0.0,92,0.00,,---,0.00,VWS V14.01,2013-08-17 07:14:00,
2013-08-17 03:19:00,63.1,60.8,27.99,ESE,112,0.0,0.0,92,0.00,,---,0.00,VWS V14.01,2013-08-17 07:19:00,
2013-08-17 03:24:00,63.1,60.8,27.99,ESE,112,0.0,0.0,92,0.00,,---,0.00,VWS V14.01,2013-08-17 07:24:00,
2013-08-17 03:29:00,63.1,60.8,27.99,ESE,112,0.0,0.0,92,0.00,,---,0.00,VWS V14.01,2013-08-17 07:29:00,
2013-08-17 03:34:00,63.1,60.8,27.99,SSW,202,0.0,0.0,92,0.00,,---,0.00,VWS V14.01,2013-08-17 07:34:00,
2013-08-17 03:39:00,63.1,60.8,27.99,South,180,0.0,0.0,92,0.00,,---,0.00,VWS V14.01,2013-08-17 07:39:00,
2013-08-17 03:44:00,63.1,60.8,27.99,South,180,0.0,0.0,92,0.00,,---,0.00,VWS V14.01,2013-08-17 07:44:00,
2013-08-17 03:49:00,63.1,60.8,27.99,WNW,292,0.0,0.0,92,0.00,,---,0.00,VWS V14.01,2013-08-17 07:49:00,
2013-08-17 03:54:00,63.1,60.8,27.99,WNW,292,0.0,0.0,92,0.00,,---,0.00,VWS V14.01,2013-08-17 07:54:00,
2013-08-17 03:59:00,63.0,60.6,27.99,WNW,292,0.0,0.0,92,0.00,,---,0.00,VWS V14.01,2013-08-17 07:59:00,
2013-08-17 04:04:00,63.0,60.6,27.99,WNW,292,0.0,0.0,92,0.00,,---,0.00,VWS V14.01,2013-08-17 08:04:00,
2013-08-17 04:09:00,63.0,60.6,27.99,WNW,292,0.0,0.0,92,0.00,,---,0.00,VWS V14.01,2013-08-17 08:09:00,
2013-08-17 04:14:00,63.0,60.6,27.99,WNW,292,0.0,0.0,92,0.00,,---,0.00,VWS V14.01,2013-08-17 08:14:00,
2013-08-17 04:19:00,62.8,60.4,27.99,WNW,292,0.0,0.0,92,0.00,,---,0.00,VWS V14.01,2013-08-17 08:19:00,
2013-08-17 04:24:00,62.8,60.4,27.99,WNW,292,0.0,0.0,92,0.00,,---,0.00,VWS V14.01,2013-08-17 08:24:00,
2013-08-17 04:29:00,62.6,60.2,27.99,WNW,292,0.0,0.0,92,0.00,,---,0.00,VWS V14.01,2013-08-17 08:29:00,
2013-08-17 04:34:00,62.4,60.4,27.99,WNW,292,0.0,0.0,93,0.00,,---,0.00,VWS V14.01,2013-08-17 08:34:00,
2013-08-17 04:39:00,62.2,60.2,27.99,WNW,292,0.0,0.0,93,0.00,,---,0.00,VWS V14.01,2013-08-17 08:39:00,
2013-08-17 04:45:00,61.9,59.8,27.99,WNW,292,0.0,0.0,93,0.00,,---,0.00,VWS V14.01,2013-08-17 08:45:00,
2013-08-17 04:50:00,61.7,59.7,27.99,WNW,292,0.0,0.0,93,0.00,,---,0.00,VWS V14.01,2013-08-17 08:50:00,
2013-08-17 04:55:00,61.7,59.7,27.99,WNW,292,0.0,0.0,93,0.00,,---,0.00,VWS V14.01,2013-08-17 08:55:00,
2013-08-17 05:00:00,61.7,59.7,27.99,WNW,292,0.0,0.0,93,0.00,,---,0.00,VWS V14.01,2013-08-17 09:00:00,
2013-08-17 05:05:00,61.7,59.7,27.99,WNW,292,0.0,0.0,93,0.00,,---,0.00,VWS V14.01,2013-08-17 09:05:00,
2013-08-17 05:10:00,61.7,59.7,27.99,NW,315,0.0,0.0,93,0.00,,---,0.00,VWS V14.01,2013-08-17 09:10:00,
2013-08-17 05:15:00,61.7,60.0,27.99,WNW,292,0.0,0.0,94,0.00,,---,0.00,VWS V14.01,2013-08-17 09:15:00,
2013-08-17 05:20:00,61.7,60.0,27.99,WNW,292,0.0,0.0,94,0.00,,---,0.00,VWS V14.01,2013-08-17 09:20:00,
2013-08-17 05:25:00,61.7,60.0,27.99,West,270,0.0,0.0,94,0.00,,---,0.00,VWS V14.01,2013-08-17 09:25:00,
2013-08-17 05:30:00,61.9,60.1,27.99,West,270,0.0,0.0,94,0.00,,---,0.00,VWS V14.01,2013-08-17 09:30:00,
2013-08-17 05:35:00,61.9,60.1,27.99,West,270,0.0,0.0,94,0.00,,---,0.00,VWS V14.01,2013-08-17 09:35:00,
2013-08-17 05:40:00,61.9,60.1,27.99,West,270,0.0,0.0,94,0.00,,---,0.00,VWS V14.01,2013-08-17 09:40:00,
2013-08-17 05:45:00,61.9,60.1,27.99,West,270,0.0,0.0,94,0.00,,---,0.00,VWS V14.01,2013-08-17 09:45:00,
2013-08-17 05:50:00,62.1,60.3,27.99,West,270,0.0,0.0,94,0.00,,---,0.00,VWS V14.01,2013-08-17 09:50:00,
2013-08-17 05:55:00,62.1,60.3,27.99,West,270,0.0,0.0,94,0.00,,---,0.00,VWS V14.01,2013-08-17 09:55:00,
2013-08-17 06:00:00,62.2,60.5,27.99,SW,225,0.0,0.0,94,0.00,,---,0.00,VWS V14.01,2013-08-17 10:00:00,
2013-08-17 06:05:00,62.2,60.5,27.99,SW,225,0.0,0.0,94,0.00,,---,0.00,VWS V14.01,2013-08-17 10:05:00,
2013-08-17 06:10:00,62.2,60.5,27.99,SW,225,0.0,0.0,94,0.00,,---,0.00,VWS V14.01,2013-08-17 10:10:00,
2013-08-17 06:15:00,62.2,60.5,27.99,WNW,292,0.0,0.0,94,0.00,,---,0.00,VWS V14.01,2013-08-17 10:15:00,
2013-08-17 06:20:00,62.4,60.7,27.99,WNW,292,0.0,0.0,94,0.00,,---,0.00,VWS V14.01,2013-08-17 10:20:00,
2013-08-17 06:25:00,62.4,60.7,27.99,WNW,292,0.0,0.0,94,0.00,,---,0.00,VWS V14.01,2013-08-17 10:25:00,
2013-08-17 06:30:00,62.4,60.7,27.99,SSW,202,0.0,0.0,94,0.00,,---,0.00,VWS V14.01,2013-08-17 10:30:00,
2013-08-17 06:36:00,62.4,60.7,27.99,NW,315,0.0,0.0,94,0.00,,---,0.00,VWS V14.01,2013-08-17 10:36:00,
2013-08-17 06:41:00,62.4,60.7,27.99,SSW,202,0.0,0.0,94,0.00,,---,0.00,VWS V14.01,2013-08-17 10:41:00,
2013-08-17 06:46:00,62.4,60.7,27.99,WNW,292,0.0,0.0,94,0.00,,---,0.00,VWS V14.01,2013-08-17 10:46:00,
2013-08-17 06:51:00,62.4,60.7,28.02,WNW,292,0.0,0.0,94,0.00,,---,0.00,VWS V14.01,2013-08-17 10:51:00,
2013-08-17 06:56:00,62.4,60.7,28.02,WNW,292,0.0,0.0,94,0.00,,---,0.00,VWS V14.01,2013-08-17 10:56:00,
2013-08-17 07:01:00,62.6,60.8,28.02,WNW,292,0.0,0.0,94,0.00,,---,0.00,VWS V14.01,2013-08-17 11:01:00,
2013-08-17 07:06:00,62.6,60.8,27.99,WNW,292,0.0,0.0,94,0.00,,---,0.00,VWS V14.01,2013-08-17 11:06:00,
2013-08-17 07:11:00,62.6,60.5,27.99,NNW,338,0.0,0.0,93,0.00,,---,0.00,VWS V14.01,2013-08-17 11:11:00,
2013-08-17 07:16:00,62.6,60.5,27.99,NE,45,0.0,0.0,93,0.00,,---,0.00,VWS V14.01,2013-08-17 11:16:00,
2013-08-17 07:21:00,62.6,60.8,28.02,WNW,292,0.0,0.0,94,0.00,,---,0.00,VWS V14.01,2013-08-17 11:21:00,
2013-08-17 07:26:00,62.6,60.5,28.02,WNW,292,0.0,0.0,93,0.00,,---,0.00,VWS V14.01,2013-08-17 11:26:00,
2013-08-17 07:31:00,62.6,60.8,28.02,WSW,248,0.0,0.0,94,0.00,,---,0.00,VWS V14.01,2013-08-17 11:31:00,
2013-08-17 07:36:00,62.8,61.0,28.02,WSW,248,0.0,0.0,94,0.00,,---,0.00,VWS V14.01,2013-08-17 11:36:00,
2013-08-17 07:41:00,62.8,61.0,28.02,East,90,0.0,0.0,94,0.00,,---,0.00,VWS V14.01,2013-08-17 11:41:00,
2013-08-17 07:46:00,62.8,61.0,28.02,East,90,0.0,0.0,94,0.00,,---,0.00,VWS V14.01,2013-08-17 11:46:00,
2013-08-17 07:51:00,63.0,61.2,28.02,NW,315,0.0,0.0,94,0.00,,---,0.00,VWS V14.01,2013-08-17 11:51:00,
2013-08-17 07:56:00,63.0,61.2,28.02,NW,315,0.0,0.0,94,0.00,,---,0.00,VWS V14.01,2013-08-17 11:56:00,
2013-08-17 08:01:00,63.0,61.2,28.02,NW,315,0.0,0.0,94,0.00,,---,0.00,VWS V14.01,2013-08-17 12:01:00,
2013-08-17 08:06:00,63.1,61.4,28.02,NW,315,0.0,0.0,94,0.00,,---,0.00,VWS V14.01,2013-08-17 12:06:00,
2013-08-17 08:11:00,63.1,61.4,28.02,NNW,338,0.0,0.0,94,0.00,,---,0.00,VWS V14.01,2013-08-17 12:11:00,
2013-08-17 08:16:00,63.1,61.1,28.02,SSE,158,0.0,0.0,93,0.00,,---,0.00,VWS V14.01,2013-08-17 12:16:00,
2013-08-17 08:21:00,63.1,61.1,28.02,WNW,292,0.0,0.0,93,0.00,,---,0.00,VWS V14.01,2013-08-17 12:21:00,
2013-08-17 08:26:00,63.1,61.1,28.02,WNW,292,0.0,0.0,93,0.00,,---,0.00,VWS V14.01,2013-08-17 12:26:00,
2013-08-17 08:31:00,63.3,61.3,28.02,ENE,68,0.0,0.0,93,0.00,,---,0.00,VWS V14.01,2013-08-17 12:31:00,
2013-08-17 08:36:00,63.3,61.3,28.02,NNW,338,0.0,0.0,93,0.00,,---,0.00,VWS V14.01,2013-08-17 12:36:00,
2013-08-17 08:41:00,63.5,61.4,28.02,NNW,338,0.0,0.0,93,0.00,,---,0.00,VWS V14.01,2013-08-17 12:41:00,
2013-08-17 08:46:00,63.5,61.4,28.02,NNW,338,0.0,0.0,93,0.00,,---,0.00,VWS V14.01,2013-08-17 12:46:00,
2013-08-17 08:51:00,63.5,61.4,28.02,NNW,338,0.0,0.0,93,0.00,,---,0.00,VWS V14.01,2013-08-17 12:51:00,
2013-08-17 08:56:00,63.5,61.4,28.02,NNW,338,0.0,0.0,93,0.00,,---,0.00,VWS V14.01,2013-08-17 12:56:00,
2013-08-17 09:01:00,63.7,61.6,28.02,East,90,0.0,0.0,93,0.00,,---,0.00,VWS V14.01,2013-08-17 13:01:00,
2013-08-17 09:06:00,63.7,61.6,28.02,NW,315,0.0,0.0,93,0.00,,---,0.00,VWS V14.01,2013-08-17 13:06:00,
2013-08-17 09:11:00,63.7,61.6,28.02,East,90,0.0,2.2,93,0.00,,---,0.00,VWS V14.01,2013-08-17 13:11:00,
2013-08-17 09:16:00,63.7,61.6,28.02,WNW,292,0.0,0.0,93,0.00,,---,0.00,VWS V14.01,2013-08-17 13:16:00,
2013-08-17 09:21:00,63.9,61.8,28.02,East,90,0.0,0.0,93,0.00,,---,0.00,VWS V14.01,2013-08-17 13:21:00,
2013-08-17 09:26:00,63.9,61.8,28.02,SSE,158,0.0,0.0,93,0.00,,---,0.00,VWS V14.01,2013-08-17 13:26:00,
2013-08-17 09:32:00,64.0,62.0,28.02,East,90,0.0,0.0,93,0.00,,---,0.00,VWS V14.01,2013-08-17 13:32:00,
2013-08-17 09:37:00,64.2,62.2,28.02,NW,315,0.0,0.0,93,0.00,,---,0.00,VWS V14.01,2013-08-17 13:37:00,
2013-08-17 09:42:00,64.2,61.8,28.02,East,90,0.0,0.0,92,0.00,,---,0.00,VWS V14.01,2013-08-17 13:42:00,
2013-08-17 09:47:00,64.4,62.0,28.02,NW,315,2.5,2.9,92,0.00,,---,0.00,VWS V14.01,2013-08-17 13:47:00,
2013-08-17 09:52:00,64.4,61.7,28.05,NE,45,0.0,0.0,91,0.00,,---,0.00,VWS V14.01,2013-08-17 13:52:00,
2013-08-17 09:57:00,64.4,61.7,28.05,WNW,292,0.0,0.9,91,0.00,,---,0.00,VWS V14.01,2013-08-17 13:57:00,
2013-08-17 10:02:00,64.4,61.7,28.05,NE,45,0.0,0.0,91,0.00,,---,0.00,VWS V14.01,2013-08-17 14:02:00,
2013-08-17 10:07:00,64.6,61.9,28.05,NNW,338,0.0,0.0,91,0.00,,---,0.00,VWS V14.01,2013-08-17 14:07:00,
2013-08-17 10:12:00,64.6,61.9,28.05,South,180,0.0,0.0,91,0.00,,---,0.00,VWS V14.01,2013-08-17 14:12:00,
2013-08-17 10:17:00,64.6,61.9,28.05,WNW,292,0.0,0.9,91,0.00,,---,0.00,VWS V14.01,2013-08-17 14:17:00,
2013-08-17 10:22:00,64.6,61.9,28.05,North,0,0.0,0.0,91,0.00,,---,0.00,VWS V14.01,2013-08-17 14:22:00,
2013-08-17 10:27:00,64.8,61.8,28.05,NW,315,0.0,0.0,90,0.00,,---,0.00,VWS V14.01,2013-08-17 14:27:00,
2013-08-17 10:32:00,64.8,61.8,28.05,East,90,0.0,0.9,90,0.00,,---,0.00,VWS V14.01,2013-08-17 14:32:00,
2013-08-17 10:37:00,64.9,61.6,28.05,SE,135,0.0,0.0,89,0.00,,---,0.00,VWS V14.01,2013-08-17 14:37:00,
2013-08-17 10:42:00,65.3,62.0,28.05,East,90,0.0,0.0,89,0.00,,---,0.00,VWS V14.01,2013-08-17 14:42:00,
2013-08-17 10:47:00,65.5,62.2,28.05,ESE,112,0.0,0.0,89,0.00,,---,0.00,VWS V14.01,2013-08-17 14:47:00,
2013-08-17 10:52:00,65.7,62.3,28.05,WNW,292,0.0,0.0,89,0.00,,---,0.00,VWS V14.01,2013-08-17 14:52:00,
2013-08-17 10:57:00,65.8,62.5,28.05,WSW,248,0.0,0.0,89,0.00,,---,0.00,VWS V14.01,2013-08-17 14:57:00,
2013-08-17 11:02:00,65.7,62.0,28.05,SE,135,0.0,0.0,88,0.00,,---,0.00,VWS V14.01,2013-08-17 15:02:00,
2013-08-17 11:07:00,65.7,62.0,28.05,WNW,292,3.1,3.1,88,0.00,,---,0.00,VWS V14.01,2013-08-17 15:07:00,
2013-08-17 11:13:00,66.0,62.4,28.05,WNW,292,0.0,0.0,88,0.00,,---,0.00,VWS V14.01,2013-08-17 15:13:00,
2013-08-17 11:18:00,66.2,62.2,28.05,NNW,338,2.0,3.6,87,0.00,,---,0.00,VWS V14.01,2013-08-17 15:18:00,
2013-08-17 11:23:00,66.2,61.9,28.05,East,90,0.0,0.0,86,0.00,,---,0.00,VWS V14.01,2013-08-17 15:23:00,
2013-08-17 11:28:00,66.4,61.7,28.05,NW,315,1.1,1.1,85,0.00,,---,0.00,VWS V14.01,2013-08-17 15:28:00,
2013-08-17 11:33:00,66.4,61.7,28.05,East,90,0.9,0.9,85,0.00,,---,0.00,VWS V14.01,2013-08-17 15:33:00,
2013-08-17 11:38:00,66.4,61.7,28.05,SSE,158,0.0,0.0,85,0.00,,---,0.00,VWS V14.01,2013-08-17 15:38:00,
2013-08-17 11:43:00,66.6,61.9,28.05,NNW,338,0.0,0.0,85,0.00,,---,0.00,VWS V14.01,2013-08-17 15:43:00,
2013-08-17 11:48:00,66.9,62.3,28.05,East,90,0.0,0.0,85,0.00,,---,0.00,VWS V14.01,2013-08-17 15:48:00,
2013-08-17 11:53:00,67.1,62.5,28.05,ESE,112,0.0,0.0,85,0.00,,---,0.00,VWS V14.01,2013-08-17 15:53:00,
2013-08-17 11:58:00,67.1,62.5,28.05,SSE,158,0.0,0.0,85,0.00,,---,0.00,VWS V14.01,2013-08-17 15:58:00,
2013-08-17 12:03:00,67.1,62.1,28.05,NW,315,0.0,0.0,84,0.00,,---,0.00,VWS V14.01,2013-08-17 16:03:00,
2013-08-17 12:08:00,67.5,62.5,28.05,SSE,158,0.0,0.0,84,0.00,,---,0.00,VWS V14.01,2013-08-17 16:08:00,
2013-08-17 12:13:00,67.5,62.8,28.05,SSE,158,0.0,0.0,85,0.00,,---,0.00,VWS V14.01,2013-08-17 16:13:00,
2013-08-17 12:18:00,67.6,62.6,28.05,NNW,338,0.0,0.9,84,0.00,,---,0.00,VWS V14.01,2013-08-17 16:18:00,
2013-08-17 12:23:00,67.6,62.3,28.05,WSW,248,0.0,1.1,83,0.00,,---,0.00,VWS V14.01,2013-08-17 16:23:00,
2013-08-17 12:28:00,67.6,62.6,28.05,WNW,292,0.0,0.0,84,0.00,,---,0.00,VWS V14.01,2013-08-17 16:28:00,
2013-08-17 12:33:00,67.6,62.6,28.05,NW,315,0.0,0.0,84,0.00,,---,0.00,VWS V14.01,2013-08-17 16:33:00,
2013-08-17 12:38:00,68.0,63.0,28.05,WSW,248,1.3,2.0,84,0.00,,---,0.00,VWS V14.01,2013-08-17 16:38:00,
2013-08-17 12:43:00,68.4,63.0,28.05,SSW,202,0.0,0.9,83,0.00,,---,0.00,VWS V14.01,2013-08-17 16:43:00,
2013-08-17 12:48:00,68.5,63.2,28.05,South,180,1.6,1.6,83,0.00,,---,0.00,VWS V14.01,2013-08-17 16:48:00,
2013-08-17 12:54:00,68.4,62.7,28.02,WSW,248,0.0,0.0,82,0.00,,---,0.00,VWS V14.01,2013-08-17 16:54:00,
2013-08-17 12:59:00,68.5,63.2,28.02,East,90,0.0,2.7,83,0.00,,---,0.00,VWS V14.01,2013-08-17 16:59:00,
2013-08-17 13:04:00,68.9,63.2,28.02,NNW,338,2.5,2.5,82,0.00,,---,0.00,VWS V14.01,2013-08-17 17:04:00,
2013-08-17 13:09:00,68.9,63.2,28.02,SE,135,0.0,0.0,82,0.00,,---,0.00,VWS V14.01,2013-08-17 17:09:00,
2013-08-17 13:14:00,68.7,62.7,28.02,NW,315,0.0,0.0,81,0.00,,---,0.00,VWS V14.01,2013-08-17 17:14:00,
2013-08-17 13:19:00,68.7,62.7,28.02,East,90,0.0,0.0,81,0.00,,---,0.00,VWS V14.01,2013-08-17 17:19:00,
2013-08-17 13:24:00,68.7,63.0,28.02,West,270,0.0,0.0,82,0.00,,---,0.00,VWS V14.01,2013-08-17 17:24:00,
2013-08-17 13:29:00,68.7,62.7,28.02,East,90,0.0,0.9,81,0.00,,---,0.00,VWS V14.01,2013-08-17 17:29:00,
2013-08-17 13:34:00,68.4,62.7,28.02,NW,315,2.2,2.2,82,0.00,,---,0.00,VWS V14.01,2013-08-17 17:34:00,
2013-08-17 13:39:00,68.2,62.5,28.02,ESE,112,0.0,0.0,82,0.00,,---,0.00,VWS V14.01,2013-08-17 17:39:00,
2013-08-17 13:44:00,68.2,62.5,28.02,SSE,158,0.0,0.0,82,0.00,,---,0.00,VWS V14.01,2013-08-17 17:44:00,
2013-08-17 13:49:00,67.8,62.5,28.02,SSW,202,0.0,0.0,83,0.00,,---,0.00,VWS V14.01,2013-08-17 17:49:00,
2013-08-17 13:54:00,67.8,62.5,28.02,ESE,112,0.0,2.0,83,0.00,,---,0.00,VWS V14.01,2013-08-17 17:54:00,
2013-08-17 13:59:00,67.8,62.5,28.02,SSE,158,0.0,0.0,83,0.00,,---,0.00,VWS V14.01,2013-08-17 17:59:00,
2013-08-17 14:04:00,68.0,62.7,28.02,NW,315,0.0,0.0,83,0.00,,---,0.00,VWS V14.01,2013-08-17 18:04:00,
2013-08-17 14:09:00,68.2,62.5,28.02,SE,135,0.0,0.0,82,0.00,,---,0.00,VWS V14.01,2013-08-17 18:09:00,
2013-08-17 14:14:00,68.0,62.7,28.02,South,180,0.0,0.0,83,0.00,,---,0.00,VWS V14.01,2013-08-17 18:14:00,
2013-08-17 14:19:00,68.0,62.3,28.02,NW,315,0.9,0.9,82,0.00,,---,0.00,VWS V14.01,2013-08-17 18:19:00,
2013-08-17 14:25:00,68.0,62.3,28.02,WNW,292,0.0,0.0,82,0.00,,---,0.00,VWS V14.01,2013-08-17 18:25:00,
2013-08-17 14:30:00,68.2,62.5,28.02,North,0,3.4,3.4,82,0.00,,---,0.00,VWS V14.01,2013-08-17 18:30:00,
2013-08-17 14:35:00,68.2,62.8,28.02,SE,135,0.0,0.0,83,0.00,,---,0.00,VWS V14.01,2013-08-17 18:35:00,
2013-08-17 14:40:00,68.2,62.8,28.02,SE,135,0.0,0.0,83,0.00,,---,0.00,VWS V14.01,2013-08-17 18:40:00,
2013-08-17 14:45:00,68.2,62.8,28.02,NNW,338,0.0,0.9,83,0.00,,---,0.00,VWS V14.01,2013-08-17 18:45:00,
2013-08-17 14:50:00,68.2,62.8,28.02,SSE,158,0.0,0.0,83,0.00,,---,0.00,VWS V14.01,2013-08-17 18:50:00,
2013-08-17 14:55:00,68.0,63.0,28.02,SSE,158,0.0,0.0,84,0.00,,---,0.00,VWS V14.01,2013-08-17 18:55:00,
2013-08-17 15:00:00,67.8,62.8,28.02,SSE,158,0.0,0.0,84,0.00,,---,0.00,VWS V14.01,2013-08-17 19:00:00,
2013-08-17 15:05:00,67.6,62.6,28.02,East,90,0.0,0.0,84,0.00,,---,0.00,VWS V14.01,2013-08-17 19:05:00,
2013-08-17 15:10:00,67.5,62.8,28.02,ESE,112,0.0,0.0,85,0.00,,---,0.00,VWS V14.01,2013-08-17 19:10:00,
2013-08-17 15:15:00,67.3,62.6,28.02,WNW,292,0.0,0.0,85,0.00,,---,0.00,VWS V14.01,2013-08-17 19:15:00,
2013-08-17 15:20:00,67.1,62.5,28.02,WNW,292,0.0,0.9,85,0.00,,---,0.00,VWS V14.01,2013-08-17 19:20:00,
2013-08-17 15:25:00,67.1,62.8,28.02,SSE,158,0.0,0.0,86,0.00,,---,0.00,VWS V14.01,2013-08-17 19:25:00,
2013-08-17 15:30:00,67.1,62.8,28.02,NW,315,0.0,0.0,86,0.00,,---,0.00,VWS V14.01,2013-08-17 19:30:00,
2013-08-17 15:35:00,67.1,63.1,28.02,NW,315,0.0,0.0,87,0.00,,---,0.00,VWS V14.01,2013-08-17 19:35:00,
2013-08-17 15:40:00,67.1,63.1,28.02,NE,45,0.0,1.6,87,0.00,,---,0.00,VWS V14.01,2013-08-17 19:40:00,
2013-08-17 15:45:00,66.9,62.9,28.02,NW,315,1.3,1.3,87,0.00,,---,0.00,VWS V14.01,2013-08-17 19:45:00,
2013-08-17 15:50:00,66.9,62.9,27.99,North,0,0.0,0.0,87,0.00,,---,0.00,VWS V14.01,2013-08-17 19:50:00,
2013-08-17 15:55:00,66.9,62.9,27.99,WNW,292,0.0,0.0,87,0.00,,---,0.00,VWS V14.01,2013-08-17 19:55:00,
2013-08-17 16:00:00,67.3,63.3,27.99,NW,315,0.0,0.0,87,0.00,,---,0.00,VWS V14.01,2013-08-17 20:00:00,
2013-08-17 16:05:00,67.3,63.0,28.02,NNW,338,0.9,0.9,86,0.00,,---,0.00,VWS V14.01,2013-08-17 20:05:00,
2013-08-17 16:11:00,67.3,63.0,28.02,North,0,0.0,0.0,86,0.00,,---,0.00,VWS V14.01,2013-08-17 20:11:00,
2013-08-17 16:16:00,67.1,63.1,28.02,North,0,0.0,0.0,87,0.00,,---,0.00,VWS V14.01,2013-08-17 20:16:00,
2013-08-17 16:21:00,67.1,63.1,27.99,ENE,68,0.0,0.0,87,0.00,,---,0.00,VWS V14.01,2013-08-17 20:21:00,
2013-08-17 16:26:00,66.9,62.9,27.99,WNW,292,0.0,0.0,87,0.00,,---,0.00,VWS V14.01,2013-08-17 20:26:00,
2013-08-17 16:31:00,66.9,63.3,27.99,ENE,68,0.0,0.0,88,0.00,,---,0.00,VWS V14.01,2013-08-17 20:31:00,
2013-08-17 16:36:00,66.7,63.1,28.02,ENE,68,0.0,0.0,88,0.00,,---,0.00,VWS V14.01,2013-08-17 20:36:00,
2013-08-17 16:41:00,66.7,63.1,28.02,NNE,22,0.0,0.0,88,0.00,,---,0.00,VWS V14.01,2013-08-17 20:41:00,
2013-08-17 16:46:00,66.6,63.2,28.02,NNW,338,0.0,0.0,89,0.00,,---,0.00,VWS V14.01,2013-08-17 20:46:00,
2013-08-17 16:51:00,66.6,63.2,28.02,NNW,338,0.0,0.0,89,0.00,,---,0.00,VWS V14.01,2013-08-17 20:51:00,
2013-08-17 16:56:00,66.6,63.2,28.02,NNW,338,0.0,0.0,89,0.00,,---,0.00,VWS V14.01,2013-08-17 20:56:00,
2013-08-17 17:01:00,66.6,63.2,28.02,NNW,338,0.0,0.0,89,0.00,,---,0.00,VWS V14.01,2013-08-17 21:01:00,
2013-08-17 17:06:00,66.4,63.4,28.02,North,0,0.0,0.0,90,0.00,,---,0.00,VWS V14.01,2013-08-17 21:06:00,
2013-08-17 17:11:00,66.4,63.4,28.02,NNW,338,0.0,0.0,90,0.00,,---,0.00,VWS V14.01,2013-08-17 21:11:00,
2013-08-17 17:16:00,66.2,63.5,28.02,WNW,292,0.0,0.0,91,0.00,,---,0.00,VWS V14.01,2013-08-17 21:16:00,
2013-08-17 17:21:00,66.2,63.5,28.02,East,90,0.0,0.0,91,0.00,,---,0.00,VWS V14.01,2013-08-17 21:21:00,
2013-08-17 17:26:00,66.0,63.6,28.02,East,90,0.0,0.0,92,0.00,,---,0.00,VWS V14.01,2013-08-17 21:26:00,
2013-08-17 17:31:00,66.0,63.6,28.02,East,90,0.0,0.0,92,0.00,,---,0.00,VWS V14.01,2013-08-17 21:31:00,
2013-08-17 17:36:00,66.0,63.6,28.02,ENE,68,0.0,0.0,92,0.00,,---,0.00,VWS V14.01,2013-08-17 21:36:00,
2013-08-17 17:41:00,66.0,63.6,28.02,NW,315,0.0,0.0,92,0.00,,---,0.00,VWS V14.01,2013-08-17 21:41:00,
2013-08-17 17:46:00,66.0,63.9,28.02,NW,315,0.0,0.0,93,0.00,,---,0.00,VWS V14.01,2013-08-17 21:46:00,
2013-08-17 17:51:00,65.8,63.8,28.02,NW,315,0.0,0.0,93,0.00,,---,0.00,VWS V14.01,2013-08-17 21:51:00,
2013-08-17 17:57:00,65.8,63.8,28.02,East,90,0.0,0.0,93,0.00,,---,0.00,VWS V14.01,2013-08-17 21:57:00,
2013-08-17 18:02:00,65.8,63.8,28.02,East,90,0.0,0.0,93,0.00,,---,0.00,VWS V14.01,2013-08-17 22:02:00,
2013-08-17 18:07:00,65.7,63.6,28.02,East,90,0.0,0.0,93,0.00,,---,0.00,VWS V14.01,2013-08-17 22:07:00,
2013-08-17 18:12:00,65.5,63.4,28.02,ESE,112,0.0,0.0,93,0.00,,---,0.00,VWS V14.01,2013-08-17 22:12:00,
2013-08-17 18:17:00,65.5,63.4,28.02,ENE,68,0.0,0.0,93,0.00,,---,0.00,VWS V14.01,2013-08-17 22:17:00,
2013-08-17 18:22:00,65.3,63.2,28.02,East,90,0.0,0.0,93,0.00,,---,0.00,VWS V14.01,2013-08-17 22:22:00,
2013-08-17 18:27:00,65.1,63.3,28.02,WSW,248,0.0,0.0,94,0.00,,---,0.00,VWS V14.01,2013-08-17 22:27:00,
2013-08-17 18:32:00,65.1,63.3,28.02,WSW,248,0.0,0.0,94,0.00,,---,0.00,VWS V14.01,2013-08-17 22:32:00,
2013-08-17 18:37:00,64.9,63.2,28.02,WSW,248,0.0,0.0,94,0.00,,---,0.00,VWS V14.01,2013-08-17 22:37:00,
2013-08-17 18:42:00,64.9,63.2,28.02,WSW,248,0.0,0.0,94,0.00,,---,0.00,VWS V14.01,2013-08-17 22:42:00,
2013-08-17 18:47:00,64.8,63.0,28.02,WSW,248,0.0,0.0,94,0.00,,---,0.00,VWS V14.01,2013-08-17 22:47:00,
2013-08-17 18:52:00,64.8,63.0,28.02,WSW,248,0.0,0.0,94,0.00,,---,0.00,VWS V14.01,2013-08-17 22:52:00,
2013-08-17 18:57:00,64.6,62.8,28.02,WSW,248,0.0,0.0,94,0.00,,---,0.00,VWS V14.01,2013-08-17 22:57:00,
2013-08-17 19:02:00,64.6,62.8,28.02,WSW,248,0.0,0.0,94,0.00,,---,0.00,VWS V14.01,2013-08-17 23:02:00,
2013-08-17 19:07:00,64.6,62.8,28.02,WSW,248,0.0,0.0,94,0.00,,---,0.00,VWS V14.01,2013-08-17 23:07:00,
2013-08-17 19:12:00,64.6,63.1,28.02,WSW,248,0.0,0.0,95,0.00,,---,0.00,VWS V14.01,2013-08-17 23:12:00,
2013-08-17 19:17:00,64.4,62.9,28.02,WSW,248,0.0,0.0,95,0.00,,---,0.00,VWS V14.01,2013-08-17 23:17:00,
2013-08-17 19:22:00,64.4,62.9,28.02,WSW,248,0.0,0.0,95,0.00,,---,0.00,VWS V14.01,2013-08-17 23:22:00,
2013-08-17 19:27:00,64.2,62.8,28.02,WSW,248,0.0,0.0,95,0.00,,---,0.00,VWS V14.01,2013-08-17 23:27:00,
2013-08-17 19:32:00,64.4,62.9,28.02,WSW,248,0.0,0.0,95,0.00,,---,0.00,VWS V14.01,2013-08-17 23:32:00,
2013-08-17 19:37:00,64.2,62.8,28.02,WSW,248,0.0,0.0,95,0.00,,---,0.00,VWS V14.01,2013-08-17 23:37:00,
2013-08-17 19:42:00,64.2,62.8,28.02,WSW,248,0.0,0.0,95,0.00,,---,0.00,VWS V14.01,2013-08-17 23:42:00,
2013-08-17 19:48:00,64.2,63.1,28.02,WSW,248,0.0,0.0,96,0.00,,---,0.00,VWS V14.01,2013-08-17 23:48:00,
2013-08-17 19:53:00,64.2,63.1,28.02,WSW,248,0.0,0.0,96,0.00,,---,0.00,VWS V14.01,2013-08-17 23:53:00,
2013-08-17 19:58:00,64.2,63.1,28.02,WSW,248,0.0,0.0,96,0.00,,---,0.00,VWS V14.01,2013-08-17 23:58:00,
2013-08-17 20:03:00,64.2,63.1,28.02,WSW,248,0.0,0.0,96,0.00,,---,0.00,VWS V14.01,2013-08-18 00:03:00,
2013-08-17 20:08:00,64.0,62.9,28.02,WSW,248,0.0,0.0,96,0.00,,---,0.00,VWS V14.01,2013-08-18 00:08:00,
2013-08-17 20:13:00,64.0,62.9,28.02,WSW,248,0.0,0.0,96,0.00,,---,0.00,VWS V14.01,2013-08-18 00:13:00,
2013-08-17 20:18:00,64.0,62.9,28.02,WSW,248,0.0,0.0,96,0.00,,---,0.00,VWS V14.01,2013-08-18 00:18:00,
2013-08-17 20:23:00,64.0,62.9,28.02,WSW,248,0.0,0.0,96,0.00,,---,0.00,VWS V14.01,2013-08-18 00:23:00,
2013-08-17 20:28:00,63.9,62.7,28.02,WSW,248,0.0,0.0,96,0.00,,---,0.00,VWS V14.01,2013-08-18 00:28:00,
2013-08-17 20:33:00,63.9,62.7,28.02,WSW,248,0.0,0.0,96,0.00,,---,0.00,VWS V14.01,2013-08-18 00:33:00,
2013-08-17 20:38:00,63.9,62.7,28.02,WSW,248,0.0,0.0,96,0.00,,---,0.00,VWS V14.01,2013-08-18 00:38:00,
2013-08-17 20:43:00,63.9,62.7,28.02,WSW,248,0.0,0.0,96,0.00,,---,0.00,VWS V14.01,2013-08-18 00:43:00,
2013-08-17 20:48:00,63.9,62.7,28.02,WSW,248,0.0,0.0,96,0.00,,---,0.00,VWS V14.01,2013-08-18 00:48:00,
2013-08-17 20:53:00,63.7,62.5,28.02,WSW,248,0.0,0.0,96,0.00,,---,0.00,VWS V14.01,2013-08-18 00:53:00,
2013-08-17 20:58:00,63.7,62.5,28.02,WSW,248,0.0,0.0,96,0.00,,---,0.00,VWS V14.01,2013-08-18 00:58:00,
2013-08-17 21:03:00,63.7,62.5,28.02,WSW,248,0.0,0.0,96,0.00,,---,0.00,VWS V14.01,2013-08-18 01:03:00,
2013-08-17 21:08:00,63.7,62.5,28.02,WNW,292,0.0,0.0,96,0.00,,---,0.00,VWS V14.01,2013-08-18 01:08:00,
2013-08-17 21:13:00,63.7,62.5,28.02,WNW,292,0.0,0.0,96,0.00,,---,0.00,VWS V14.01,2013-08-18 01:13:00,
2013-08-17 21:18:00,63.7,62.5,28.02,WNW,292,0.0,0.0,96,0.00,,---,0.00,VWS V14.01,2013-08-18 01:18:00,
2013-08-17 21:23:00,63.7,62.5,28.02,WNW,292,0.0,0.0,96,0.00,,---,0.00,VWS V14.01,2013-08-18 01:23:00,
2013-08-17 21:29:00,63.7,62.5,28.02,NW,315,0.0,0.0,96,0.00,,---,0.00,VWS V14.01,2013-08-18 01:29:00,
2013-08-17 21:34:00,63.5,62.3,28.02,NW,315,0.0,0.0,96,0.00,,---,0.00,VWS V14.01,2013-08-18 01:34:00,
2013-08-17 21:39:00,63.5,62.3,28.02,NW,315,0.0,0.0,96,0.00,,---,0.00,VWS V14.01,2013-08-18 01:39:00,
2013-08-17 21:44:00,63.5,62.3,28.02,NW,315,0.0,0.0,96,0.00,,---,0.00,VWS V14.01,2013-08-18 01:44:00,
2013-08-17 21:49:00,63.5,62.3,28.02,NW,315,0.0,0.0,96,0.00,,---,0.00,VWS V14.01,2013-08-18 01:49:00,
2013-08-17 21:54:00,63.5,62.3,28.02,NW,315,0.0,0.0,96,0.00,,---,0.00,VWS V14.01,2013-08-18 01:54:00,
2013-08-17 21:59:00,63.5,62.3,28.02,NW,315,0.0,0.0,96,0.00,,---,0.00,VWS V14.01,2013-08-18 01:59:00,
2013-08-17 22:04:00,63.5,62.3,28.02,SE,135,0.0,0.0,96,0.00,,---,0.00,VWS V14.01,2013-08-18 02:04:00,
2013-08-17 22:09:00,63.5,62.6,28.02,SE,135,0.0,0.0,97,0.00,,---,0.00,VWS V14.01,2013-08-18 02:09:00,
2013-08-17 22:14:00,63.3,62.5,28.02,West,270,0.0,0.0,97,0.00,,---,0.00,VWS V14.01,2013-08-18 02:14:00,
2013-08-17 22:19:00,63.3,62.5,28.02,West,270,0.0,0.0,97,0.00,,---,0.00,VWS V14.01,2013-08-18 02:19:00,
2013-08-17 22:24:00,63.3,62.2,28.02,SSW,202,0.0,0.0,96,0.00,,---,0.00,VWS V14.01,2013-08-18 02:24:00,
2013-08-17 22:29:00,63.1,62.0,28.02,SSW,202,0.0,0.0,96,0.00,,---,0.00,VWS V14.01,2013-08-18 02:29:00,
2013-08-17 22:34:00,63.1,62.3,28.02,SSW,202,0.0,0.0,97,0.00,,---,0.00,VWS V14.01,2013-08-18 02:34:00,
2013-08-17 22:39:00,63.1,62.3,28.02,WSW,248,0.0,0.0,97,0.00,,---,0.00,VWS V14.01,2013-08-18 02:39:00,
2013-08-17 22:44:00,63.1,62.3,28.02,East,90,1.1,1.1,97,0.00,,---,0.00,VWS V14.01,2013-08-18 02:44:00,
2013-08-17 22:49:00,63.1,62.3,28.02,NW,315,0.0,1.3,97,0.00,,---,0.00,VWS V14.01,2013-08-18 02:49:00,
2013-08-17 22:54:00,63.0,62.1,28.02,West,270,0.0,0.0,97,0.00,,---,0.00,VWS V14.01,2013-08-18 02:54:00,
2013-08-17 22:59:00,63.0,62.1,28.02,SSE,158,0.0,0.0,97,0.00,,---,0.00,VWS V14.01,2013-08-18 02:59:00,
2013-08-17 23:04:00,63.1,62.3,28.02,SE,135,0.0,0.0,97,0.00,,---,0.00,VWS V14.01,2013-08-18 03:04:00,
2013-08-17 23:10:00,63.0,62.1,28.05,East,90,0.0,0.0,97,0.00,,---,0.00,VWS V14.01,2013-08-18 03:10:00,
2013-08-17 23:15:00,63.0,62.1,28.05,SSE,158,0.9,0.9,97,0.00,,---,0.00,VWS V14.01,2013-08-18 03:15:00,
2013-08-17 23:20:00,63.0,62.1,28.05,SW,225,0.0,0.0,97,0.00,,---,0.00,VWS V14.01,2013-08-18 03:20:00,
2013-08-17 23:25:00,63.0,62.1,28.05,SE,135,0.0,0.0,97,0.00,,---,0.00,VWS V14.01,2013-08-18 03:25:00,
2013-08-17 23:30:00,63.0,62.1,28.05,SE,135,0.0,0.0,97,0.00,,---,0.00,VWS V14.01,2013-08-18 03:30:00,
2013-08-17 23:35:00,63.0,62.1,28.05,SE,135,0.0,0.0,97,0.00,,---,0.00,VWS V14.01,2013-08-18 03:35:00,
2013-08-17 23:40:00,63.0,62.1,28.05,SSE,158,0.0,0.0,97,0.00,,---,0.00,VWS V14.01,2013-08-18 03:40:00,
2013-08-17 23:45:00,62.8,61.9,28.05,East,90,0.0,0.0,97,0.00,,---,0.00,VWS V14.01,2013-08-18 03:45:00,
2013-08-17 23:50:00,62.8,61.9,28.02,ESE,112,0.0,0.0,97,0.00,,---,0.00,VWS V14.01,2013-08-18 03:50:00,
2013-08-17 23:55:00,62.8,61.9,28.02,East,90,0.0,0.0,97,0.00,,---,0.00,VWS V14.01,2013-08-18 03:55:00,